Afton Municipal Airport, WY

1:57 PM MST on December 09, 2019 (GMT -0700)
Afton Municipal

Weather History for KAFO - October, 2019

Change the Weather History Date:

Monday, October 7, 2019

  Actual Average Record
Temperature  
Mean Temperature 40 °F -  
Max Temperature 62 °F 63 °F 68 °F (2014)
Min Temperature 17 °F 26 °F 21 °F (2016)
Degree Days  
Heating Degree Days 26    
Moisture  
Dew Point 22 °F    
Average Humidity 62    
Maximum Humidity 93    
Minimum Humidity 19    
Precipitation  
Precipitation 0.00 in - - ()
Sea Level Pressure  
Sea Level Pressure 30.26 in    
Wind  
Wind Speed 1 mph ()    
Max Wind Speed 9 mph    
Max Gust Speed -    
Visibility 10.0 miles    
Events      
Averages and records for this station are not official NWS values.
T = Trace of Precipitation, MM = Missing Value Source: Averaged Metar Reports

Daily Weather History Graph

Daily Weather History Graph

Search for Another Location

Airport or City:

Astronomy

Oct. 07, 2019 Rise Set
Actual Time 7:27 AM MDT 6:54 PM MDT
Civil Twilight 6:59 AM MDT 7:23 PM MDT
Nautical Twilight 6:26 AM MDT 7:55 PM MDT
Astronomical Twilight 5:53 AM MDT 8:28 PM MDT
Moon 4:28 PM MDT (10/7) 1:13 AM MDT (10/7)
Length of Visible Light 12h 23m
Length of Day
11h 27m
Waxing Gibbous, 69% of the Moon is Illuminated
Oct 7
Waxing Gibbous
Oct 13
Full
Oct 21
Last Quarter
Oct 27
New
Nov 4
First Quarter

Hourly Weather History & Observations

Time (MDT) Temp. Windchill Dew Point Humidity Pressure Visibility Wind Dir Wind Speed Gust Speed Precip Events Conditions
12:15 AM 28.4 °F - 23.0 °F 80% 30.41 in 10.0 mi Calm Calm - N/A   Clear
12:35 AM 30.2 °F - 23.0 °F 75% 30.40 in 10.0 mi Calm Calm - N/A   Clear
12:55 AM 26.6 °F - 23.0 °F 86% 30.40 in 10.0 mi Calm Calm - N/A   Clear
1:15 AM 26.6 °F - 21.2 °F 80% 30.40 in 10.0 mi Calm Calm - N/A   Clear
1:35 AM 26.6 °F - 23.0 °F 86% 30.40 in 10.0 mi Calm Calm - N/A   Clear
1:55 AM 26.6 °F - 21.2 °F 80% 30.40 in 10.0 mi Calm Calm - N/A   Clear
2:15 AM 23.0 °F - 21.2 °F 93% 30.40 in 10.0 mi Calm Calm - N/A   Clear
2:35 AM 23.0 °F - 19.4 °F 86% 30.39 in 10.0 mi Calm Calm - N/A   Clear
2:55 AM 23.0 °F - 21.2 °F 93% 30.39 in 10.0 mi Calm Calm - N/A   Clear
3:15 AM 24.8 °F - 21.2 °F 86% 30.38 in 10.0 mi Calm Calm - N/A   Clear
3:35 AM 24.8 °F - 21.2 °F 86% 30.38 in 10.0 mi Calm Calm - N/A   Clear
3:55 AM 24.8 °F - 19.4 °F 80% 30.37 in 10.0 mi Calm Calm - N/A   Clear
4:15 AM 24.8 °F - 19.4 °F 80% 30.37 in 10.0 mi Calm Calm - N/A   Clear
4:35 AM 23.0 °F - 19.4 °F 86% 30.37 in 10.0 mi Calm Calm - N/A   Clear
4:55 AM 21.2 °F 16.4 °F 19.4 °F 93% 30.37 in 10.0 mi SE 3.5 mph - N/A   Clear
5:15 AM 21.2 °F - 17.6 °F 86% 30.37 in 10.0 mi Calm Calm - N/A   Clear
5:35 AM 21.2 °F - 17.6 °F 86% 30.37 in 10.0 mi Calm Calm - N/A   Clear
5:55 AM 21.2 °F - 19.4 °F 93% 30.36 in 10.0 mi Calm Calm - N/A   Clear
6:15 AM 21.2 °F - 17.6 °F 86% 30.36 in 10.0 mi Calm Calm - N/A   Clear
6:35 AM 19.4 °F - 15.8 °F 86% 30.36 in 10.0 mi Calm Calm - N/A   Clear
6:55 AM 21.2 °F - 19.4 °F 93% 30.36 in 10.0 mi Calm Calm - N/A   Clear
7:15 AM 21.2 °F - 17.6 °F 86% 30.35 in 10.0 mi Calm Calm - N/A   Clear
7:35 AM 17.6 °F - 14.0 °F 86% 30.35 in 10.0 mi Calm Calm - N/A   Clear
7:55 AM 21.2 °F - 17.6 °F 86% 30.35 in 10.0 mi Calm Calm - N/A   Clear
8:15 AM 19.4 °F - 17.6 °F 93% 30.35 in 10.0 mi Calm Calm - N/A   Clear
8:35 AM 23.0 °F - 21.2 °F 93% 30.34 in 10.0 mi Calm Calm - N/A   Clear
8:55 AM 28.4 °F - 21.2 °F 74% 30.34 in 10.0 mi Calm Calm - N/A   Clear
9:15 AM 30.2 °F - 23.0 °F 75% 30.33 in 10.0 mi Calm Calm - N/A   Clear
9:35 AM 30.2 °F - 23.0 °F 75% 30.34 in 10.0 mi Calm Calm - N/A   Clear
9:55 AM 32.0 °F - 26.6 °F 80% 30.33 in 10.0 mi Calm Calm - N/A   Clear
10:15 AM 33.8 °F - 24.8 °F 70% 30.32 in 10.0 mi Calm Calm - N/A   Clear
10:35 AM 35.6 °F - 26.6 °F 70% 30.31 in 10.0 mi Calm Calm - N/A   Clear
10:55 AM 35.6 °F - 26.6 °F 70% 30.31 in 10.0 mi Calm Calm - N/A   Clear
11:15 AM 39.2 °F - 26.6 °F 61% 30.29 in 10.0 mi Calm Calm - N/A   Clear
11:35 AM 42.8 °F - 26.6 °F 53% 30.28 in 10.0 mi Calm Calm - N/A   Clear
11:55 AM 44.6 °F - 28.4 °F 53% 30.27 in 10.0 mi Calm Calm - N/A   Clear
12:15 PM 46.4 °F - 28.4 °F 50% 30.25 in 10.0 mi Calm Calm - N/A   Clear
12:35 PM 50.0 °F - 30.2 °F 47% 30.25 in 10.0 mi Calm Calm - N/A   Clear
12:55 PM 51.8 °F - 28.4 °F 41% 30.23 in 10.0 mi NNW 3.5 mph - N/A   Clear
1:15 PM 53.6 °F - 28.4 °F 38% 30.23 in 10.0 mi North 3.5 mph - N/A   Clear
1:35 PM 55.4 °F - 26.6 °F 33% 30.21 in 10.0 mi Calm Calm - N/A   Clear
1:55 PM 59.0 °F - 23.0 °F 25% 30.20 in 10.0 mi Calm Calm - N/A   Clear
2:15 PM 60.8 °F - 26.6 °F 27% 30.19 in 10.0 mi NNW 4.6 mph - N/A   Clear
2:35 PM 60.8 °F - 21.2 °F 22% 30.18 in 10.0 mi WNW 3.5 mph - N/A   Clear
2:55 PM 60.8 °F - 19.4 °F 20% 30.17 in 10.0 mi Calm Calm - N/A   Clear
3:35 PM 62.6 °F - 21.2 °F 20% 30.16 in 10.0 mi North 5.8 mph - N/A   Clear
3:55 PM 62.6 °F - 21.2 °F 20% 30.15 in 10.0 mi NW 4.6 mph - N/A   Clear
4:15 PM 62.6 °F - 23.0 °F 22% 30.14 in 10.0 mi NW 8.1 mph - N/A   Clear
4:35 PM 62.6 °F - 19.4 °F 19% 30.14 in 10.0 mi Calm Calm - N/A   Clear
4:55 PM 62.6 °F - 23.0 °F 22% 30.14 in 10.0 mi NNW 5.8 mph - N/A   Clear
5:15 PM 60.8 °F - 23.0 °F 23% 30.13 in 10.0 mi North 3.5 mph - N/A   Clear
5:35 PM 60.8 °F - 26.6 °F 27% 30.13 in 10.0 mi Calm Calm - N/A   Clear
5:55 PM 59.0 °F - 26.6 °F 29% 30.13 in 10.0 mi WSW 5.8 mph - N/A   Clear
6:15 PM 55.4 °F - 23.0 °F 29% 30.12 in 10.0 mi WSW 5.8 mph - N/A   Clear
6:35 PM 50.0 °F - 23.0 °F 35% 30.13 in 10.0 mi Calm Calm - N/A   Clear
6:55 PM 46.4 °F - 24.8 °F 43% 30.13 in 10.0 mi Calm Calm - N/A   Clear
7:15 PM 46.4 °F 44.3 °F 21.2 °F 37% 30.13 in 10.0 mi ENE 4.6 mph - N/A   Clear
7:35 PM 44.6 °F - 21.2 °F 39% 30.13 in 10.0 mi Calm Calm - N/A   Clear
7:55 PM 41.0 °F 38.0 °F 23.0 °F 49% 30.13 in 10.0 mi SSW 4.6 mph - N/A   Clear
8:15 PM 35.6 °F - 24.8 °F 65% 30.13 in 10.0 mi North - - N/A   Clear
8:35 PM 37.4 °F 30.8 °F 23.0 °F 56% 30.13 in 10.0 mi South 9.2 mph - N/A   Clear
8:55 PM 35.6 °F 32.8 °F 23.0 °F 60% 30.14 in 10.0 mi South 3.5 mph - N/A   Clear
9:15 PM 33.8 °F 27.7 °F 23.0 °F 65% 30.13 in 10.0 mi South 6.9 mph - N/A   Clear
9:35 PM 33.8 °F 30.8 °F 21.2 °F 60% 30.13 in 10.0 mi South 3.5 mph - N/A   Clear
9:55 PM 32.0 °F - 21.2 °F 64% 30.14 in 10.0 mi Calm Calm - N/A   Clear
10:15 PM 33.8 °F - 21.2 °F 60% 30.14 in 10.0 mi Calm Calm - N/A   Clear
10:35 PM 33.8 °F - 19.4 °F 56% 30.13 in 10.0 mi Calm Calm - N/A   Clear
10:55 PM 28.4 °F - 21.2 °F 74% 30.13 in 10.0 mi Calm Calm - N/A   Clear
11:15 PM 30.2 °F - 23.0 °F 75% 30.13 in 10.0 mi Calm Calm - N/A   Clear
11:35 PM 30.2 °F - 21.2 °F 69% 30.12 in 10.0 mi North - - N/A   Clear
11:55 PM 28.4 °F - 21.2 °F 74% 30.12 in 10.0 mi Calm Calm - N/A   Clear